Regional Weather Roundup
Issued by NWS Wilmington, NC

Home | Current Version | Previous Version | Text Only | Print | Product List | Glossary On
Versions: 1 2 3 4 5 6 7 8 9 10 11 12 13 14 15 16 17 18 19 20 21 22 23 24 25 26 27 28 29 30 31 32 33 34 35 36 37 38 39 40 41 42 43 44 45 46 47 48 49 50
000
ASUS42 KILM 270213
RWRILM
RWRILM
REGIONAL HOURLY WEATHER ROUNDUP
NATIONAL WEATHER SERVICE WILMINGTON NC
1000 PM EDT THU MAR 26 2015

NOTE: "FAIR" INDICATES FEW OR NO CLOUDS BELOW 12,000 FEET WITH NO
SIGNIFICANT WEATHER AND/OR OBSTRUCTIONS TO VISIBILITY.

...............WFO WILMINGTON COUNTY WARNING AREA...............

......COASTAL NC AND SC COUNTIES......

CITY           SKY/WX    TMP DP  RH WIND       PRES   REMARKS
WILMINGTON     PTCLDY    64  56  75 S13       29.82F
SOUTHPORT      PTCLDY    61  59  93 SW3       29.84F
N MYRTLE BEACH PTCLDY    61  58  90 SW10      29.82F
MYRTLE BEACH   CLEAR     63  57  82 S8        29.84F

......INLAND NC AND SC COUNTIES.......

CITY           SKY/WX    TMP DP  RH WIND       PRES   REMARKS
LUMBERTON      CLOUDY    69  58  67 S9        29.76F
ELIZABETHTOWN  MOCLDY    66  59  77 S6        29.78F
WHITEVILLE     MOCLDY    65  58  77 S7        29.80S
FLORENCE       CLOUDY    69  58  67 S12       29.77S
DARLINGTON     CLOUDY    70  55  60 S12       29.77S

....................REST OF NORTH CAROLINA......................

.........EASTERN NC.........

CITY           SKY/WX    TMP DP  RH WIND       PRES   REMARKS
CAPE HATTERAS  CLOUDY    65  59  81 SW16      29.84R
JACKSONVILLE   MOCLDY    64  54  68 S10       29.80F
MOREHEAD CITY  CLOUDY    62  60  93 S12       29.84R
KENANSVILLE    MOCLDY    65  57  75 S3        29.79F
NEW BERN       CLOUDY    66  56  70 S10       29.81S
ELIZABETH CITY CLOUDY    66  56  70 S13       29.75S

.........CENTRAL NC.........

CITY           SKY/WX    TMP DP  RH WIND       PRES   REMARKS
RALEIGH DURHAM CLOUDY    69  55  60 SW13      29.72F
ROCKY MOUNT    CLOUDY    68  58  70 S9        29.74S
ROANOKE RAPIDS NOT AVBL
FAYETTEVILLE   CLOUDY    68  56  65 S12       29.75F
HOFFMAN        NOT AVBL

.........WESTERN NC.........

CITY           SKY/WX    TMP DP  RH WIND       PRES   REMARKS
CHARLOTTE      CLOUDY    67  54  63 SW9       29.74S
GREENSBORO     CLOUDY    66  54  65 S10       29.70F
HICKORY        NOT AVBL
BOONE          NOT AVBL
ASHEVILLE      NOT AVBL

.....................REST OF SOUTH CAROLINA.....................

.........EASTERN SC.........

CITY           SKY/WX    TMP DP  RH WIND       PRES   REMARKS
CHARLESTON     CLOUDY    66  56  70 S9        29.81F
BEAUFORT MCAS  CLOUDY    67  58  72 S9        29.82S
HILTON HEAD    LGT RAIN  64  63  94 S5        29.84S

.........CENTRAL SC.........

CITY           SKY/WX    TMP DP  RH WIND       PRES   REMARKS
COLUMBIA       CLOUDY    70  56  61 SW3       29.76F
ORANGEBURG     CLOUDY    70  58  65 S5        29.78F
SUMTER SHAW    CLOUDY    68  58  68 S7        29.75F

.........WESTERN SC.........

CITY           SKY/WX    TMP DP  RH WIND       PRES   REMARKS
GREENVILLE     NOT AVBL
ROCK HILL      CLOUDY    67  56  67 SW12      29.75S
ANDERSON       CLOUDY    63  53  70 S8        29.76S
CLEMSON        NOT AVBL
GREENWOOD      CLOUDY    66  57  72 SW9       29.78S


...................COASTAL AND OFFSHORE REPORTS..................

................LOCAL PIERS AND NC RESERVE................


STATION/POSITION TIME  SKY/WX   TEMP    WIND        PRES    VSBY
                                AIR SEA DIR/SP/G
                 (UTC)          (F)     (DEG/KT/KT) (MB)    (MI)
JOHNY MRCER PIER 0100            65 60  220/ 12/ 13 1009.6R
NC RESRV MASNBRO 0045            66     220/  6     1010.0
OCEAN CREST PIER 0202            60 59  180/  3/  3 1009.5F
SPRINGMAID  PIER 0100            59 57  190/  7/  8 1009.9F


................COASTAL AND OFFSHORE BUOYS................


STATION/POSITION TIME  SKY/WX   TEMP    WIND        PRES    VSBY
                                AIR SEA DIR/SP/G
                 (UTC)          (F)     (DEG/KT/KT) (MB)    (MI)
DIMNDSHOAL 41025 NOT AVBL
CAPE LOOKOUT     0200            64     200/ 11/ 13 1010.5R
ONSLOW BAY 41036 NOT AVBL
5 WRITEBCH 41038 0100            60 56  200/ 12/ 14 1010.2R
MASONBORO  41110 0119               56                N/A
WVE H/P(F/S)=  5/ 8 WND WVE H/P(F/S)=  5/ 8

WILM HARBR 41108 0111               59                N/A
WVE H/P(F/S)=  4/ 8 WND WVE H/P(F/S)=  5/ 8

27WRITEBCH 41037 0100            64 64  220/ 12/ 14 1012.7R
FRYING PAN 41013 0150            70 66  210/ 12/ 14 1011.3R
WVE H/P(F/S)=  6/ 8 WND WVE H/P(F/S)=  3/ 5 SWL H/P/D(F/S/D)=  5/120/ 8

SUNST NRSH 41024 0100            60     220/ 12/ 14   N/A
CAPRS NRSH 41029 0100            62     230/  8/  8   N/A
EDISTO     41004 0150            70 70  200/ 12/ 14 1010.1F
WVE H/P(F/S)=  5/ 8 WND WVE H/P(F/S)=  2/ 5 SWL H/P/D(F/S/D)=  5/ 8



..........OFFSHORE BUOYS BEYOND 100 NM OFFSHORE...........
.....IN A TRIANGLE---HAT TO BERMUDA TO BAHAMAS TO HAT.....


STATION/POSITION TIME  SKY/WX   TEMP    WIND        PRES    VSBY
                                AIR SEA DIR/SP/G
                 (UTC)          (F)     (DEG/KT/KT) (MB)    (MI)
150E HAT   41001 NOT AVBL
W BERMUDA  41048 0150            69 69  160/ 21/ 25 1020.9F
WVE H/P(F/S)=  6/ 6 WND WVE H/P(F/S)=  5/ 6 SWL H/P/D(F/S/D)=  2/110/ 8

ATLANTIC S 41049 0150            71 74  100/ 19/ 21 1024.5F
WVE H/P(F/S)=  7/ 8 WND WVE H/P(F/S)=  7/ 8 SWL H/P/D(F/S/D)=  3/ 70/11

E BAHAMAS  41046 0150            77 79  110/ 14/ 17 1020.0R
WVE H/P(F/S)=  8/10 WND WVE H/P(F/S)=  3/ 6 SWL H/P/D(F/S/D)=  7/ 30/10

NE BAHAMAS 41047 0150            74 74  120/ 21/ 25 1019.0R
WVE H/P(F/S)=  9/ 8 WND WVE H/P(F/S)=  8/ 8 SWL H/P/D(F/S/D)=  2/130/12

120E CANVRL41010 0120            77 76  180/ 16/ 19 1013.1F

END


USA.gov is the U.S. government's official web portal to all federal, state and local government web resources and services.